Date String (YYYY-MM-DD hh:mm:ss) UTC,Instrument flags,Ambient pressure (hPa),Sample flow (lpm),Bypass flow (lpm),Sample temperature (°C),Ambient temperature (°C),ASC tube jacket temperature (°C),LED temperature (°C),Box temperature (°C),Sample RH (%),Span deviation,Mass concentration (μg/m³),Mass concentration (μg/m³),Mass concentration (μg/m³)
DateTimeUTC,F1_M11,P_M11,Q1_M11,Q2_M11,T1_M11,T2_M11,T3_M11,T4_M11,T5_M11,U1_M11,ZSPAN_M11,X2_M11,X0_M11,X1_M11
2022-12-11 03:00:00,,0823.2,5.01,0.00,25.6,24.1,00.0,34.6,27.5,08.9,0000.0,0008.27,0023.05,0006.89
2022-12-11 03:01:00,,0823.2,5.01,0.00,25.6,24.1,00.0,34.6,27.5,08.9,0000.0,0008.23,0023.09,0006.88
2022-12-11 03:02:00,,0823.2,4.99,0.00,25.6,24.1,00.0,34.6,27.5,08.8,0000.0,0008.24,0023.67,0006.87
2022-12-11 03:03:00,,0823.3,4.99,0.00,25.6,24.0,00.0,34.6,27.5,08.7,0000.0,0008.19,0023.21,0006.85
2022-12-11 03:04:00,,0823.4,4.99,0.00,25.6,24.0,00.0,34.5,27.5,08.8,0000.0,0008.16,0021.57,0006.88
2022-12-11 03:05:00,,0823.4,5.00,0.00,25.6,24.0,00.0,34.5,27.4,08.9,0000.0,0008.25,0020.67,0006.93
2022-12-11 03:06:00,,0823.3,5.00,0.00,25.6,23.9,00.0,34.5,27.3,09.0,0000.0,0008.29,0021.16,0006.97
2022-12-11 03:07:00,,0823.2,5.00,0.00,25.6,23.9,00.0,34.5,27.3,09.0,0000.0,0008.35,0021.57,0007.01
2022-12-11 03:08:00,,0823.2,5.00,0.00,25.5,23.9,00.0,34.5,27.3,09.0,0000.0,0008.31,0021.60,0007.02
2022-12-11 03:09:00,,0823.2,5.00,0.00,25.5,23.9,00.0,34.5,27.3,09.0,0000.0,0008.25,0021.08,0007.02
2022-12-11 03:10:00,,0823.2,5.01,0.00,25.5,23.9,00.0,34.5,27.4,09.0,0000.0,0008.25,0020.15,0007.03
2022-12-11 03:11:00,,0823.2,5.00,0.00,25.5,23.9,00.0,34.5,27.4,09.0,0000.5,0008.34,0020.39,0007.05
2022-12-11 03:12:00,,0823.2,4.99,0.00,25.5,23.9,00.0,34.5,27.3,09.0,0000.0,0008.40,0020.53,0007.06
2022-12-11 03:13:00,,0823.2,4.99,0.00,25.5,23.9,00.0,34.5,27.3,09.1,0000.0,0008.43,0019.75,0007.08
2022-12-11 03:14:00,,0823.3,4.99,0.00,25.5,23.9,00.0,34.5,27.4,09.1,0000.0,0008.49,0019.89,0007.14
2022-12-11 03:15:00,,0823.2,4.99,0.00,25.5,23.9,00.0,34.4,27.4,09.0,0000.0,0008.56,0020.29,0007.18
2022-12-11 03:16:00,,0823.2,5.00,0.00,25.5,23.9,00.0,34.4,27.4,08.9,0000.0,0008.56,0021.14,0007.21
2022-12-11 03:17:00,,0823.2,5.00,0.00,25.5,23.9,00.0,34.4,27.3,08.9,0000.0,0008.62,0020.91,0007.23
2022-12-11 03:18:00,,0823.2,5.00,0.00,25.5,23.9,00.0,34.4,27.3,08.9,0000.0,0008.63,0020.78,0007.22
2022-12-11 03:19:00,,0823.1,5.00,0.00,25.5,23.9,00.0,34.4,27.2,08.9,0000.0,0008.65,0020.74,0007.22
2022-12-11 03:20:00,,0823.2,5.01,0.00,25.4,23.9,00.0,34.4,27.2,08.7,0000.0,0008.65,0020.88,0007.18
2022-12-11 03:21:00,,0823.1,5.00,0.00,25.4,23.9,00.0,34.4,27.2,08.8,0000.0,0008.65,0020.94,0007.16
2022-12-11 03:22:00,,0823.1,4.99,0.00,25.4,23.9,00.0,34.4,27.3,09.0,0000.0,0008.60,0021.43,0007.15
2022-12-11 03:23:00,,0823.1,4.99,0.00,25.4,23.9,00.0,34.4,27.3,09.1,0000.0,0008.58,0021.67,0007.15
2022-12-11 03:24:00,,0823.2,5.00,0.00,25.4,23.9,00.0,34.4,27.3,09.1,0000.0,0008.58,0022.05,0007.13
2022-12-11 03:25:00,,0823.1,5.00,0.00,25.4,23.9,00.0,34.4,27.2,09.1,0000.0,0008.56,0023.06,0007.11
2022-12-11 03:26:00,,0823.1,5.00,0.00,25.4,23.9,00.0,34.4,27.2,09.1,0000.0,0008.56,0024.35,0007.10
2022-12-11 03:27:00,,0823.0,5.01,0.00,25.4,23.8,00.0,34.3,27.3,09.0,0000.0,0008.56,0023.73,0007.10
2022-12-11 03:28:00,,0822.9,4.98,0.00,25.4,23.9,00.0,34.3,27.3,09.0,0000.0,0008.49,0024.02,0007.09
2022-12-11 03:29:00,,0822.9,5.01,0.00,25.4,23.9,00.0,34.3,27.3,08.9,0000.0,0008.48,0023.74,0007.08
2022-12-11 03:30:00,,0822.9,5.02,0.00,25.4,23.9,00.0,34.3,27.3,08.9,0000.0,0008.50,0023.77,0007.07
2022-12-11 03:31:00,,0822.8,5.00,0.00,25.4,23.9,00.0,34.3,27.3,08.9,0000.0,0008.56,0023.73,0007.11
2022-12-11 03:32:00,,0822.8,5.00,0.00,25.4,23.9,00.0,34.3,27.3,08.9,0000.0,0008.59,0022.86,0007.13
2022-12-11 03:33:00,,0822.9,4.98,0.00,25.4,23.9,00.0,34.3,27.3,08.9,0002.6,0008.59,0022.61,0007.14
2022-12-11 03:34:00,,0823.0,5.00,0.00,25.4,23.9,00.0,34.3,27.2,09.0,0003.4,0008.55,0022.96,0007.12
2022-12-11 03:35:00,,0823.0,5.01,0.00,25.4,23.8,00.0,34.3,27.2,09.0,0000.0,0008.56,0023.09,0007.11
2022-12-11 03:36:00,,0823.1,5.00,0.00,25.4,23.8,00.0,34.3,27.2,09.0,0000.0,0008.61,0023.11,0007.11
2022-12-11 03:37:00,,0823.1,4.99,0.00,25.4,23.8,00.0,34.3,27.1,08.9,0000.6,0008.56,0022.40,0007.08
2022-12-11 03:38:00,,0823.1,5.01,0.00,25.3,23.7,00.0,34.3,27.1,08.9,0002.0,0008.53,0022.36,0007.07
2022-12-11 03:39:00,,0823.0,5.01,0.00,25.3,23.7,00.0,34.3,27.1,08.9,0003.0,0008.50,0021.21,0007.05
2022-12-11 03:40:00,,0822.9,4.99,0.00,25.3,23.7,00.0,34.3,27.1,08.9,0002.4,0008.45,0020.74,0007.03
2022-12-11 03:41:00,,0822.9,5.01,0.00,25.3,23.7,00.0,34.3,27.1,08.5,0000.0,0008.37,0020.34,0006.97
2022-12-11 03:42:00,,0823.0,5.00,0.00,25.3,23.7,00.0,34.2,27.1,08.4,0000.0,0008.21,0019.63,0006.86
2022-12-11 03:43:00,,0822.9,5.00,0.00,25.3,23.7,00.0,34.2,27.1,08.4,0000.0,0008.12,0019.72,0006.78
2022-12-11 03:44:00,,0823.0,4.99,0.00,25.3,23.7,00.0,34.2,27.2,08.5,0000.0,0008.10,0019.55,0006.71
2022-12-11 03:45:00,,0822.9,5.00,0.00,25.3,23.7,00.0,34.2,27.2,08.5,0000.0,0008.09,0019.04,0006.66
2022-12-11 03:46:00,,0822.8,5.00,0.00,25.3,23.8,00.0,34.2,27.2,08.6,0000.0,0008.05,0018.74,0006.62
2022-12-11 03:47:00,,0822.8,5.01,0.00,25.3,23.8,00.0,34.2,27.2,08.6,0000.0,0007.94,0017.94,0006.56
2022-12-11 03:48:00,,0822.8,5.00,0.00,25.3,23.8,00.0,34.2,27.2,08.6,0000.0,0007.94,0017.87,0006.51
2022-12-11 03:49:00,,0822.8,4.98,0.00,25.3,23.8,00.0,34.2,27.2,08.7,0000.0,0007.93,0019.40,0006.47
2022-12-11 03:50:00,,0823.0,5.00,0.00,25.3,23.8,00.0,34.2,27.2,08.7,0000.0,0007.92,0021.35,0006.45
2022-12-11 03:51:00,,0822.9,5.01,0.00,25.3,23.7,00.0,34.2,27.1,08.7,0000.0,0007.93,0021.61,0006.43
2022-12-11 03:52:00,,0822.9,5.01,0.00,25.3,23.7,00.0,34.2,27.1,08.7,0000.0,0007.97,0021.72,0006.46
2022-12-11 03:53:00,,0822.8,5.00,0.00,25.3,23.7,00.0,34.2,27.1,08.7,0000.0,0008.08,0022.84,0006.52
2022-12-11 03:54:00,,0822.8,5.00,0.00,25.3,23.7,00.0,34.2,27.2,08.8,0000.0,0008.15,0023.34,0006.56
2022-12-11 03:55:00,,0822.8,5.00,0.00,25.3,23.7,00.0,34.2,27.1,08.8,0000.0,0008.19,0023.34,0006.60
2022-12-11 03:56:00,,0822.8,5.00,0.00,25.3,23.7,00.0,34.2,27.1,08.8,0000.0,0008.19,0023.24,0006.63
2022-12-11 03:57:00,,0822.8,5.00,0.00,25.3,23.7,00.0,34.2,27.2,08.8,0000.0,0008.22,0023.29,0006.65
2022-12-11 03:58:00,,0823.0,4.99,0.00,25.3,23.7,00.0,34.1,27.1,08.9,0000.0,0008.26,0023.20,0006.68
2022-12-11 03:59:00,,0823.2,5.01,0.00,25.3,23.7,00.0,34.1,27.1,08.9,0000.0,0008.24,0023.30,0006.72
